Voltar ao catálogo

COSMOS 1833

AtivoMilitarLEO
NORAD 17589·PAYLOAD·🇷🇺 Russia

Lançado Mar 18, 1987 de Baikonur Cosmodrome

Loading…

Próximas Passagens (próximas 24 horas)

TLE

AtualizadoSource: Space-Track

Época: Sep 14, 2026, 12:21 UTC

1 17589U 87027A   26257.51497941 -.00000328  00000-0 -14955-3 0  9998
2 17589  70.9166 289.1175 0027012 279.1389  80.6676 14.13049454 36990

Acompanhe COSMOS 1833 em tempo real com AllMySat

Download on the App Store